Weather in Koloyar

Russia / Saratov Oblast     52°33′51″N   46°56′42″E
temp.,
°C
wind,
m/s
gust,
m/s
humid.,
%
clouds,
%
prec.,
mm/h
press.,
hPa
HPBL,
m
19 april, mon
mon1901:00+10ne6135377 0.1 1018330
04:00+7ene71271100 0.1 1018326
07:00+6ne7147688 0.0 1019498
10:00+8ene81268100 0.0 1019643
13:00+11ene91055100 0.0 10191142
16:00+12e8954100 0.0 10191526
19:00+7e81282100 0.4 1020952
22:00+4e91390100 1.0 1021693
20 april, tue
tue2001:00+4e81494100 1.4 1022689
04:00+3e81489100 2.5 1022732
07:00+1e81590100 1.5 1024649
10:00+2ese81474100 1.9 1025751
13:00+4ese8136892 0.1 1024854
16:00+6ese81465100 0.1 1023893
19:00+7ese91665100 0.0 1022892
22:00+6ese91764100 0.0 1022830
21 april, wed
wed2101:00+5ese91867100 0.8 1021875
04:00+2ese91993100 7.9 1020728
07:00+2se91895100 5.4 1020765
10:00+2se91792100 6.3 1020830
13:00+2se81597100 1.4 1020704
16:00+3se71397100 2.0 1021639
19:00+2se61197100 0.0 1022520
22:00+3se51098100 0.0 1023439
22 april, thu
thu2201:00+3se4998100 0.0 1023359
04:00+3se3899100 0.1 1023343
07:00+4se2799100 0.0 1024328
10:00+5se2598100 0.0 1025252
13:00+7sse2394100 0.0 1026340
16:00+9sse3481100 0.0 1025700
19:00+8ese3693100 0.0 1026287
22:00+7se3697100 0.0 1027282
23 april, fri
fri2301:00+6se2595100 0.0 1027226
04:00+5se2398100 0.0 1027135
07:00+5se3494100 0.0 1027316
10:00+6ese3387100 0.0 1026444
13:00+9ese2372100 0.0 1025922
16:00+10e337294 0.0 1024805
19:00+9e3576100 0.0 1023262
22:00+7ene238196 0.0 102287